STARLINK-37587, 69837

Orbit data source: Space-Track

STARLINK-37587, 69837 is a payload satellite owned by SpaceX/Seattle (US) in LEO that was launched on Sun, 05 Jul 2026 UTC via an FALCON 9 launch vehicle from the Air Force Eastern Test Range (AFETR). Payload-class satellites include a variety of spacecraft equipped with specific instruments for various scientific and technological missions. These include communications satellites like Starlink; space stations such as the ISS; scientific satellites like the Hubble; Earth observation satellites from companies like Planet Labs, Umbra, and HawkEye 360; GPS; miniature CubeSats for education and research; and military/defense satellites.

Loading next visibility...
Identifier
69837, 2026-154U
Orbit
LEO
Country
Flag of USUS
Related business
Manufacturer
SpaceX/Seattle
Mission
Operational spacecraft
Bus & Motor
STARLINK V2MO, Unknown motor
Mass
575 kg wet, ~530 kg dry
Launch date (UTC)
2026-07-05 (1 month ago)
Launch vehicle
FALCON 9
Launch site
Air Force Eastern Test Range (AFETR)
Object type
Payload
Rocket body
Debris
Shape & HBR
BOX + PAN, 17.7 m
Radar Cross Section
Large (>1 m²)

Expand to show TLE details & history
Last TLE update: 3 days ago

TLE from 3 days ago
0 STARLINK-37587
1 69837U 26154U   26226.15289868  .00030906  00000-0  56144-3 0  9997
2 69837  53.1603 146.3687 0001665  81.0252 279.0945 15.49314407  7500
Epoch: 2026-08-14T03:40Z
TLE epoch observation values (Epoch: 2026-08-14T03:40:10.445Z)
Latitude
-0.00009°
Longitude
128.74289°
Altitude
419.459 km
Speed
7.661 km/s
True Right ascension
09h 45m 28s
True Declination
0° 00' 00"
Sunlit
Object was in daylight at epoch
Visualization orbit readout
Latitude
Unknown
Longitude
Unknown
Altitude
Unknown
Speed
Unknown
Apparent Right ascension
Unknown
Apparent Declination
Unknown
Sunlit
N/A
Visualization observer readout
Local Sidereal Time
17:12:35
Azimuth
Unknown
Elevation
Unknown
Doppler factor
Unknown
Orbital elements
Apogee altitude
420.121 km
Perigee altitude
417.857 km
Semi-major axis
6,797.126 km
Eccentricity
0.00017
Inclination
53.1603°
RAAN
146.3687°
Arg. of periapsis
81.0252°
True anomaly
279.07566°
Mean anomaly
279.0945°
Eccentric anomaly
279.08508°
Mean motion
3.87307 °/min
Orbital period
92.95 mins
BSTAR
0.00056144
Loading maneuver chart data...
Computing Atmospheric mass density...
Loading historical data...
Loading historical data...
Loading historical data...
Loading historical data...
Loading historical data...
Loading historical data...
Loading historical data...

Documentation

Showing up to 5 results
|